Weather in Pleszew

Poland     51°53′37″N   17°47′19″E
temp.,
°C
wind,
m/s
gust,
m/s
humid.,
%
clouds,
%
prec.,
mm/h
press.,
hPa
HPBL,
m
10 may, mon
mon1023:00+13sse5128777 0.0 1013224
02:00+11sse5128278 0.0 1013222
05:00+12sse615657 0.0 1012397
08:00+14sse7146982 0.0 1012546
11:00+20s913625 0.0 1011792
14:00+22s8125887 0.0 10111275
17:00+23s696675 0.0 10111020
20:00+18sse49855 0.0 1011145
11 may, tue
tue1123:00+15sse48894 0.0 1012126
02:00+14sse411874 0.0 1012224
05:00+13se514851 0.0 1010251
08:00+18se615750 0.0 1010416
11:00+23se813600 0.0 10091129
14:00+26se813540 0.0 10081612
17:00+25sse69600 0.0 10071010
20:00+20se510815 0.0 1007200
12 may, wed
wed1223:00+17se511870 0.0 1008247
02:00+15se5128814 0.0 1007234
05:00+13ese5118815 0.0 1007227
08:00+16se587865 0.0 1007321
11:00+21se456828 0.0 1007938
14:00+22ese456496 0.3 10071180
17:00+22ese466474 1.1 10061003
20:00+17ese713800 1.5 1006494
13 may, thu
thu1323:00+14ese5128312 0.0 1006387
02:00+11e49870 0.0 1005218
05:00+8ene38920 0.0 1004168
08:00+12e57770 0.0 1003416
11:00+16e56615 0.0 10021071
14:00+18ene45532 0.0 10011487
17:00+19ene335412 0.0 10001604
20:00+15ene33732 0.0 100034
14 may, fri
fri1423:00+12e227814 0.0 100012
02:00+11ene118346 0.0 100010
05:00+9nnw118897 0.0 100110
08:00+13w337995 0.0 1002307
11:00+14wsw5479100 0.0 1004812
14:00+14wsw6678100 0.1 1005889
17:00+13wsw677993 0.1 1007766
20:00+11wsw588497 0.1 1008521